BXS2421 LFPG-LIRQ

Flight info

Callsign BXS2421
Flight time N/A
Altitude 35000
Route LANVI DCT DEVDI DCT ODINA DCT SRN DCT ROBAS DCT OSBUL DCT BEROK/N0382F190 Y138 GAPMI
Aircraft B738/M-SDE2E3FGHIRWXY/LB1

Departure

Time 2026-05-09 09:52
Airport Charles de Gaulle International Airport (LFPG)

Arrival

Time N/A
Airport Florence Airport, Peretola (LIRQ)
Time Latitude Longitude Altitude Speed Heading
2026-05-09 09:48 48.99909 2.55768 356 ft 7 kts 122°
2026-05-09 09:48 48.99901 2.55839 360 ft 7 kts 95°
2026-05-09 09:48 48.99898 2.55908 353 ft 7 kts 95°
2026-05-09 09:48 48.99878 2.55976 356 ft 8 kts 123°
2026-05-09 09:49 48.99864 2.56010 361 ft 0 kts 130°
2026-05-09 09:49 48.99862 2.56010 361 ft 1 kts 154°
2026-05-09 09:49 48.99827 2.56017 357 ft 9 kts 180°
2026-05-09 09:49 48.99742 2.56030 356 ft 14 kts 175°
2026-05-09 09:50 48.99725 2.56032 353 ft 0 kts 175°
2026-05-09 09:51 48.99709 2.56034 353 ft 8 kts 175°
2026-05-09 09:51 48.99631 2.56071 357 ft 13 kts 130°
2026-05-09 09:51 48.99621 2.56206 356 ft 18 kts 86°
2026-05-09 09:51 48.99653 2.56759 354 ft 89 kts 88°
2026-05-09 09:52 48.99722 2.58014 361 ft 147 kts 89°
2026-05-09 09:52 48.99741 2.59408 686 ft 157 kts 90°
2026-05-09 09:52 48.99730 2.61144 1363 ft 164 kts 99°
2026-05-09 09:52 48.99436 2.62832 2221 ft 162 kts 105°
2026-05-09 09:53 48.99107 2.64617 2599 ft 189 kts 106°
2026-05-09 09:53 48.98734 2.66688 2823 ft 217 kts 105°
2026-05-09 09:53 48.98330 2.69021 3192 ft 231 kts 108°
2026-05-09 09:53 48.98177 2.71433 3761 ft 236 kts 77°
2026-05-09 09:54 48.98981 2.73637 4427 ft 244 kts 56°
2026-05-09 09:54 48.99945 2.75782 4897 ft 257 kts 60°
2026-05-09 09:54 49.00803 2.78215 5595 ft 262 kts 71°
2026-05-09 09:54 49.01007 2.80906 5967 ft 256 kts 101°
2026-05-09 09:55 49.00772 2.82693 5955 ft 266 kts 105°
2026-05-09 09:55 49.00348 2.85420 5978 ft 265 kts 105°
2026-05-09 09:55 48.99806 2.89020 5977 ft 262 kts 104°
2026-05-09 09:55 48.99463 2.91408 6011 ft 260 kts 104°
2026-05-09 09:56 48.99135 2.93729 5978 ft 259 kts 104°
2026-05-09 09:56 48.98763 2.96504 6028 ft 257 kts 101°
2026-05-09 09:56 48.98501 2.99246 6009 ft 259 kts 99°
2026-05-09 09:56 48.98280 3.01937 6037 ft 261 kts 99°
2026-05-09 09:57 48.98065 3.04672 5971 ft 263 kts 98°
2026-05-09 09:57 48.97844 3.07447 6064 ft 258 kts 99°
2026-05-09 09:57 48.97624 3.10152 6343 ft 265 kts 99°
2026-05-09 09:57 48.97395 3.12970 7086 ft 269 kts 99°
2026-05-09 09:58 48.97157 3.15838 7922 ft 270 kts 99°
2026-05-09 09:58 48.96918 3.18699 8605 ft 277 kts 99°
2026-05-09 09:58 48.96674 3.21625 9347 ft 281 kts 99°
2026-05-09 09:58 48.96423 3.24610 10101 ft 285 kts 99°
2026-05-09 09:59 48.96159 3.27700 10529 ft 302 kts 99°
2026-05-09 09:59 48.95876 3.30997 10713 ft 325 kts 99°
2026-05-09 09:59 48.95572 3.34524 10891 ft 347 kts 99°
2026-05-09 09:59 48.95252 3.38244 11227 ft 361 kts 99°
2026-05-09 10:00 48.94925 3.42064 11835 ft 367 kts 99°
2026-05-09 10:00 48.94591 3.45925 12593 ft 368 kts 99°
2026-05-09 10:00 48.94231 3.50076 13396 ft 372 kts 99°
2026-05-09 10:00 48.93885 3.54033 14075 ft 377 kts 99°
2026-05-09 10:01 48.93591 3.58022 14772 ft 380 kts 97°
2026-05-09 10:01 48.93370 3.62033 15459 ft 384 kts 96°
2026-05-09 10:01 48.93170 3.66096 16101 ft 388 kts 96°
2026-05-09 10:01 48.92971 3.70223 16801 ft 391 kts 96°
2026-05-09 10:02 48.92766 3.74354 17456 ft 394 kts 96°
2026-05-09 10:02 48.92547 3.78588 18109 ft 398 kts 96°
2026-05-09 10:02 48.92325 3.82781 18726 ft 401 kts 96°
2026-05-09 10:02 48.92095 3.87034 19307 ft 404 kts 96°
2026-05-09 10:03 48.91860 3.91306 19883 ft 406 kts 97°
2026-05-09 10:03 48.91622 3.95610 20448 ft 409 kts 97°
2026-05-09 10:03 48.91382 3.99930 21008 ft 412 kts 97°
2026-05-09 10:03 48.91139 4.04282 21572 ft 415 kts 97°
2026-05-09 10:04 48.90892 4.08667 22129 ft 418 kts 97°
2026-05-09 10:04 48.90643 4.13086 22674 ft 421 kts 97°
2026-05-09 10:04 48.90386 4.17540 23185 ft 425 kts 97°
2026-05-09 10:04 48.89871 4.21949 23670 ft 426 kts 107°
2026-05-09 10:05 48.88888 4.26186 24104 ft 426 kts 117°
2026-05-09 10:05 48.87963 4.28899 24423 ft 426 kts 121°
2026-05-09 10:05 48.86510 4.32837 24899 ft 428 kts 121°
2026-05-09 10:05 48.85037 4.36758 25323 ft 431 kts 121°
2026-05-09 10:06 48.83545 4.40727 25759 ft 433 kts 121°
2026-05-09 10:06 48.82056 4.44709 26196 ft 435 kts 121°
2026-05-09 10:06 48.80577 4.48691 26627 ft 437 kts 121°
2026-05-09 10:06 48.79082 4.52731 27049 ft 440 kts 121°
2026-05-09 10:07 48.77560 4.56853 27451 ft 442 kts 121°
2026-05-09 10:07 48.76060 4.60916 27834 ft 445 kts 121°
2026-05-09 10:07 48.74538 4.65039 28222 ft 447 kts 121°
2026-05-09 10:07 48.73107 4.68906 28587 ft 449 kts 121°
2026-05-09 10:08 48.72665 4.70099 28688 ft 450 kts 121°
2026-05-09 10:08 48.71504 4.73231 28981 ft 452 kts 121°
2026-05-09 10:08 48.69961 4.77388 29360 ft 454 kts 121°
2026-05-09 10:08 48.68413 4.81552 29722 ft 456 kts 121°
2026-05-09 10:09 48.66851 4.85745 30179 ft 456 kts 121°
2026-05-09 10:09 48.65297 4.89912 30625 ft 454 kts 121°
2026-05-09 10:09 48.63748 4.94060 31023 ft 453 kts 121°
2026-05-09 10:09 48.62088 4.98494 31380 ft 454 kts 121°
2026-05-09 10:10 48.60469 5.02811 31737 ft 454 kts 121°
2026-05-09 10:10 48.58909 5.06964 32136 ft 453 kts 121°
2026-05-09 10:10 48.57739 5.10077 32437 ft 452 kts 121°
2026-05-09 10:10 48.55991 5.14718 32826 ft 453 kts 121°
2026-05-09 10:11 48.54325 5.19136 33168 ft 453 kts 121°
2026-05-09 10:11 48.52742 5.23325 33555 ft 452 kts 121°
2026-05-09 10:11 48.51104 5.27654 33939 ft 452 kts 121°
2026-05-09 10:11 48.49985 5.30606 34166 ft 452 kts 121°
2026-05-09 10:12 48.48254 5.35166 34443 ft 453 kts 121°
2026-05-09 10:12 48.46668 5.39337 34651 ft 454 kts 121°
2026-05-09 10:12 48.45093 5.43475 34875 ft 456 kts 121°
2026-05-09 10:12 48.43509 5.47626 35060 ft 458 kts 121°
2026-05-09 10:13 48.41896 5.51852 35046 ft 460 kts 121°
2026-05-09 10:13 48.38692 5.60221 35239 ft 462 kts 121°
2026-05-09 10:13 48.37085 5.64411 35544 ft 461 kts 121°
2026-05-09 10:14 48.35211 5.69289 35902 ft 459 kts 122°
2026-05-09 10:14 48.33955 5.72556 36109 ft 459 kts 122°
2026-05-09 10:14 48.32010 5.77598 36347 ft 460 kts 122°
2026-05-09 10:14 48.30756 5.80951 36478 ft 462 kts 119°
2026-05-09 10:15 48.29111 5.85885 36710 ft 463 kts 117°
2026-05-09 10:15 48.27654 5.90511 36957 ft 463 kts 117°
2026-05-09 10:15 48.27482 5.91066 36999 ft 463 kts 117°
2026-05-09 10:16 48.23872 6.02678 37074 ft 467 kts 117°
2026-05-09 10:16 48.20998 6.11754 37081 ft 465 kts 117°
2026-05-09 10:17 48.18114 6.20757 37068 ft 463 kts 117°
2026-05-09 10:17 48.15689 6.28285 37075 ft 463 kts 117°
2026-05-09 10:18 48.12320 6.38713 37073 ft 463 kts 117°
2026-05-09 10:18 48.11544 6.41110 37070 ft 463 kts 117°
2026-05-09 10:19 48.07246 6.54345 37071 ft 465 kts 117°
2026-05-09 10:19 48.05834 6.58680 37077 ft 466 kts 117°
2026-05-09 10:20 48.03908 6.64578 37076 ft 467 kts 118°
2026-05-09 10:20 48.00288 6.75631 37083 ft 469 kts 118°
2026-05-09 10:21 47.97426 6.84334 37074 ft 470 kts 118°
2026-05-09 10:21 47.95473 6.90258 37085 ft 471 kts 118°
2026-05-09 10:22 47.91753 7.01500 37084 ft 472 kts 118°
2026-05-09 10:22 47.88622 7.10927 37081 ft 473 kts 118°
2026-05-09 10:23 47.86206 7.18176 37065 ft 473 kts 118°
2026-05-09 10:23 47.82972 7.27850 37081 ft 473 kts 118°
2026-05-09 10:24 47.80331 7.35724 37074 ft 473 kts 118°
2026-05-09 10:24 47.77612 7.43810 37085 ft 472 kts 118°
2026-05-09 10:25 47.75086 7.50725 37063 ft 470 kts 128°
2026-05-09 10:25 47.72680 7.54710 37086 ft 464 kts 141°
2026-05-09 10:25 47.70767 7.56948 37075 ft 461 kts 149°
2026-05-09 10:26 47.65168 7.61154 37081 ft 457 kts 158°
2026-05-09 10:26 47.59024 7.65333 37070 ft 458 kts 158°
2026-05-09 10:27 47.52872 7.69578 37076 ft 459 kts 158°
2026-05-09 10:27 47.51781 7.70337 37077 ft 459 kts 158°
2026-05-09 10:29 47.50979 7.70896 37073 ft 459 kts 158°
2026-05-09 10:29 47.45423 7.74776 37079 ft 460 kts 158°
2026-05-09 10:30 47.39911 7.78626 37074 ft 460 kts 158°
2026-05-09 10:30 47.33808 7.82876 37086 ft 460 kts 158°
2026-05-09 10:31 47.27692 7.87123 37077 ft 460 kts 158°
2026-05-09 10:31 47.23038 7.90346 37087 ft 459 kts 158°
2026-05-09 10:32 47.18419 7.93538 37082 ft 459 kts 158°
2026-05-09 10:32 47.11527 7.98291 37092 ft 458 kts 158°
2026-05-09 10:33 47.05446 8.02473 37095 ft 458 kts 158°
2026-05-09 10:33 47.03219 8.04002 37095 ft 458 kts 159°
2026-05-09 10:34 46.94354 8.10073 37100 ft 458 kts 159°
2026-05-09 10:34 46.89091 8.13667 37103 ft 458 kts 159°
2026-05-09 10:35 46.74244 8.23766 37071 ft 455 kts 159°
2026-05-09 10:36 46.72766 8.24768 37088 ft 455 kts 159°
2026-05-09 10:36 46.63144 8.31273 37091 ft 458 kts 159°
2026-05-09 10:37 46.52550 8.38410 37107 ft 461 kts 160°
2026-05-09 10:38 46.46127 8.42720 37114 ft 460 kts 160°
2026-05-09 10:38 46.39906 8.46885 37110 ft 460 kts 160°